Total_Precipitation_Accumulation
0.14 0.14 0.13 0.13 0.12 0.10 0.10 0.10 0.10 0.08 0.07 0.08 0.07 0.06 0.06 0.06 0.03 0.04 0.04 0.04 0.03 0.03 0.04 0.01 0.02 0.02 0.01 0.01 0.00 0.00 0.00 0.01 0.00 0.00 0.00 0.00 0.00 0.00 0.00 0.00 0.00 0.00 0.00 0.00 0.00 0.00 0.00 0.00 0.00 0.00 0.00 0.00 0.00 0.00 0.00 0.00 0.00 0.00 0.01 0.02 0.11 0.18 0.21 0.21 0.28 0.20 0.44 0.58 0.38 0.77 0.58 0.56 0.40 0.46 0.67 0.55 0.80 0.56 0.45 0.65 0.43 0.38 0.44 0.50 0.76 1.95 2.10 1.73
0.14 0.13 0.13 0.13 0.12 0.11 0.09 0.08 0.08 0.09 0.07 0.06 0.08 0.07 0.08 0.05 0.06 0.02 0.04 0.03 0.04 0.03 0.02 0.04 0.02 0.01 0.01 0.00 0.00 0.01 0.01 0.00 0.00 0.00 0.00 0.00 0.00 0.00 0.00 0.00 0.00 0.00 0.00 0.00 0.00 0.00 0.00 0.00 0.00 0.00 0.00 0.00 0.00 0.00 0.00 0.00 0.00 0.01 0.02 0.14 0.22 0.19 0.15 0.06 0.18 0.09 0.27 0.40 0.42 0.18 0.53 0.63 0.57 0.33 0.67 0.50 0.48 0.62 0.36 0.53 0.40 0.57 0.57 0.63 1.00 1.81 1.59 1.76
0.13 0.13 0.14 0.12 0.13 0.11 0.10 0.09 0.08 0.08 0.08 0.06 0.07 0.08 0.06 0.05 0.05 0.04 0.02 0.03 0.03 0.02 0.02 0.02 0.03 0.01 0.00 0.00 0.01 0.01 0.01 0.00 0.00 0.00 0.00 0.00 0.00 0.00 0.00 0.00 0.00 0.00 0.00 0.00 0.00 0.00 0.00 0.00 0.00 0.00 0.00 0.00 0.00 0.00 0.00 0.00 0.01 0.01 0.09 0.33 0.43 0.28 0.22 0.14 0.21 0.27 0.34 0.37 0.27 0.21 0.34 0.72 0.77 0.67 0.51 0.76 0.39 0.71 0.42 0.56 0.56 0.71 1.05 0.87 0.88 1.85 1.40 1.45
0.10 0.11 0.10 0.12 0.11 0.10 0.09 0.07 0.08 0.07 0.07 0.09 0.06 0.06 0.06 0.06 0.04 0.04 0.04 0.03 0.02 0.02 0.02 0.02 0.01 0.01 0.01 0.00 0.00 0.01 0.00 0.00 0.00 0.00 0.00 0.00 0.00 0.00 0.00 0.00 0.00 0.00 0.00 0.00 0.00 0.00 0.00 0.00 0.00 0.00 0.00 0.00 0.00 0.00 0.00 0.01 0.07 0.01 0.19 0.40 0.26 0.12 0.24 0.16 0.13 0.10 0.15 0.21 0.35 0.36 0.77 0.31 0.66 0.56 0.80 0.40 0.64 0.41 0.45 0.50 0.70 0.68 0.86 0.98 1.16 1.74 1.95 2.17
0.11 0.11 0.12 0.09 0.09 0.09 0.09 0.09 0.07 0.09 0.09 0.08 0.08 0.08 0.07 0.04 0.05 0.04 0.04 0.02 0.03 0.02 0.04 0.02 0.01 0.00 0.00 0.01 0.01 0.00 0.00 0.00 0.00 0.00 0.00 0.00 0.00 0.00 0.00 0.00 0.00 0.00 0.00 0.00 0.00 0.00 0.00 0.00 0.00 0.00 0.00 0.00 0.00 0.00 0.01 0.02 0.08 0.13 0.11 0.14 0.14 0.26 0.14 0.23 0.14 0.15 0.17 0.33 0.19 0.73 0.65 0.20 0.58 0.36 0.77 0.84 0.42 0.74 0.72 0.86 0.80 0.65 1.08 0.78 0.96 1.40 1.27 1.40
0.09 0.12 0.12 0.10 0.08 0.09 0.08 0.06 0.07 0.06 0.07 0.07 0.08 0.07 0.08 0.06 0.05 0.05 0.04 0.05 0.04 0.04 0.02 0.01 0.01 0.00 0.00 0.01 0.00 0.00 0.00 0.00 0.00 0.00 0.00 0.00 0.00 0.00 0.00 0.00 0.00 0.00 0.00 0.00 0.00 0.00 0.00 0.00 0.00 0.00 0.01 0.02 0.02 0.02 0.01 0.01 0.02 0.19 0.09 0.08 0.25 0.18 0.17 0.13 0.08 0.09 0.11 0.29 0.21 0.33 0.60 0.43 0.48 0.44 0.40 0.47 0.80 0.99 0.67 0.85 0.90 0.88 0.45 0.72 0.56 0.62 0.77 1.18
0.10 0.12 0.08 0.08 0.08 0.08 0.06 0.08 0.06 0.07 0.09 0.06 0.07 0.06 0.05 0.08 0.05 0.03 0.04 0.05 0.04 0.04 0.01 0.01 0.01 0.01 0.00 0.00 0.00 0.00 0.00 0.00 0.00 0.00 0.00 0.00 0.00 0.00 0.00 0.00 0.00 0.00 0.00 0.00 0.00 0.00 0.00 0.00 0.00 0.00 0.00 0.01 0.02 0.03 0.05 0.04 0.12 0.14 0.09 0.30 0.34 0.11 0.09 0.06 0.23 0.15 0.28 0.43 0.28 0.25 0.30 0.51 0.60 0.22 0.69 0.34 0.47 1.13 0.64 0.90 0.41 0.42 0.48 0.43 0.56 0.79 0.70 1.11
0.09 0.08 0.06 0.06 0.06 0.10 0.10 0.08 0.09 0.07 0.08 0.08 0.06 0.06 0.05 0.06 0.07 0.06 0.04 0.04 0.05 0.02 0.03 0.01 0.01 0.00 0.00 0.00 0.00 0.00 0.00 0.00 0.00 0.00 0.00 0.00 0.00 0.00 0.00 0.00 0.00 0.00 0.00 0.00 0.00 0.00 0.00 0.00 0.00 0.00 0.00 0.05 0.02 0.05 0.02 0.08 0.06 0.19 0.38 0.35 0.10 0.09 0.09 0.22 0.19 0.40 0.76 0.41 0.20 0.28 0.16 0.47 0.22 0.19 0.35 0.37 0.68 0.84 1.39 0.93 0.72 0.50 0.63 0.70 0.80 1.13 1.25 1.58
0.11 0.07 0.06 0.05 0.05 0.04 0.07 0.08 0.06 0.06 0.05 0.04 0.05 0.04 0.05 0.04 0.06 0.04 0.03 0.05 0.03 0.03 0.02 0.01 0.00 0.01 0.00 0.02 0.00 0.00 0.00 0.00 0.00 0.00 0.00 0.00 0.00 0.00 0.00 0.00 0.00 0.00 0.00 0.00 0.00 0.00 0.00 0.00 0.00 0.00 0.00 0.01 0.01 0.03 0.03 0.15 0.26 0.28 0.31 0.69 0.58 0.19 0.28 0.33 0.24 0.37 0.84 0.35 0.88 0.56 0.21 0.21 0.26 0.34 0.23 1.02 1.07 1.22 1.09 0.76 1.32 0.54 1.18 1.13 0.88 0.89 1.07 1.16
0.09 0.09 0.06 0.06 0.05 0.04 0.05 0.06 0.05 0.05 0.04 0.04 0.03 0.04 0.06 0.06 0.03 0.08 0.04 0.04 0.03 0.03 0.02 0.01 0.01 0.02 0.00 0.00 0.00 0.01 0.00 0.00 0.00 0.00 0.00 0.00 0.00 0.00 0.00 0.00 0.00 0.00 0.00 0.00 0.00 0.00 0.00 0.00 0.00 0.00 0.00 0.00 0.00 0.06 0.10 0.14 0.11 0.18 0.26 0.52 0.34 0.14 0.47 0.31 0.35 0.49 0.51 0.41 0.63 0.45 0.31 0.60 0.15 0.38 0.69 2.26 1.33 1.79 1.28 0.97 1.18 0.80 0.48 0.69 0.86 0.93 1.08 1.25
0.17 0.08 0.09 0.07 0.05 0.04 0.04 0.03 0.05 0.05 0.04 0.03 0.04 0.06 0.05 0.04 0.07 0.04 0.06 0.03 0.05 0.02 0.02 0.01 0.04 0.01 0.03 0.01 0.01 0.00 0.00 0.00 0.00 0.00 0.00 0.00 0.00 0.00 0.00 0.00 0.00 0.00 0.00 0.00 0.00 0.00 0.00 0.00 0.00 0.00 0.00 0.04 0.02 0.03 0.02 0.06 0.06 0.08 0.29 0.40 0.12 0.13 0.47 0.32 0.22 0.83 1.36 0.67 1.10 1.25 0.24 0.22 0.16 0.22 0.48 1.21 1.50 1.75 1.32 1.03 1.04 0.83 0.62 0.60 0.82 0.79 1.02 1.56
0.08 0.08 0.16 0.10 0.08 0.05 0.06 0.05 0.05 0.05 0.04 0.05 0.06 0.05 0.09 0.04 0.05 0.03 0.05 0.05 0.02 0.03 0.01 0.00 0.02 0.08 0.01 0.03 0.04 0.00 0.00 0.00 0.00 0.00 0.00 0.00 0.00 0.00 0.00 0.00 0.00 0.00 0.00 0.00 0.00 0.00 0.00 0.00 0.00 0.00 0.07 0.00 0.07 0.05 0.04 0.04 0.25 0.05 0.62 0.31 0.23 0.54 0.21 0.51 0.56 0.63 0.76 0.26 0.97 0.73 0.51 0.25 0.40 0.71 0.63 0.57 0.84 1.60 1.60 1.01 0.80 0.99 0.80 0.78 0.87 0.91 0.84 0.96
0.09 0.10 0.10 0.09 0.06 0.11 0.07 0.04 0.06 0.06 0.05 0.05 0.07 0.06 0.05 0.07 0.05 0.06 0.04 0.03 0.02 0.02 0.01 0.02 0.02 0.07 0.10 0.04 0.00 0.00 0.00 0.00 0.00 0.00 0.00 0.00 0.00 0.00 0.00 0.00 0.00 0.00 0.00 0.00 0.00 0.00 0.00 0.00 0.00 0.00 0.00 0.01 0.01 0.21 0.03 0.06 0.07 0.27 0.63 0.26 0.39 0.36 0.35 0.28 0.32 0.66 0.51 0.55 0.67 0.50 0.67 0.52 0.47 0.71 0.52 1.27 1.10 1.26 0.78 0.79 0.85 0.60 0.73 0.72 0.97 1.06 1.54 1.66
0.10 0.09 0.10 0.10 0.09 0.07 0.05 0.11 0.05 0.06 0.05 0.05 0.04 0.08 0.06 0.05 0.09 0.07 0.06 0.05 0.04 0.04 0.01 0.02 0.08 0.03 0.12 0.01 0.00 0.00 0.00 0.00 0.00 0.00 0.00 0.00 0.00 0.00 0.00 0.00 0.00 0.00 0.00 0.00 0.00 0.00 0.00 0.00 0.00 0.00 0.00 0.01 0.05 0.04 0.21 0.26 0.11 0.54 0.37 0.55 0.62 0.36 0.21 0.16 0.37 0.36 0.38 0.30 0.43 0.32 0.27 0.80 0.51 0.85 0.83 1.73 1.33 1.46 0.86 0.65 1.06 1.01 0.87 1.03 1.36 1.50 1.05 1.12
0.19 0.10 0.10 0.07 0.07 0.10 0.10 0.05 0.03 0.04 0.04 0.05 0.06 0.06 0.07 0.13 0.05 0.04 0.08 0.05 0.05 0.03 0.03 0.07 0.04 0.04 0.06 0.00 0.00 0.00 0.00 0.00 0.00 0.00 0.00 0.00 0.00 0.00 0.00 0.00 0.00 0.00 0.00 0.00 0.00 0.00 0.00 0.00 0.00 0.00 0.04 0.02 0.04 0.02 0.07 0.36 0.15 0.25 0.48 0.30 0.20 0.63 0.18 0.39 0.36 0.19 0.19 0.22 0.34 0.43 0.67 0.53 0.41 0.37 0.68 0.87 1.28 1.47 1.60 1.58 2.17 1.17 1.00 1.58 1.93 1.47 1.78 2.14
0.22 0.12 0.12 0.19 0.08 0.06 0.04 0.07 0.05 0.05 0.02 0.05 0.05 0.03 0.07 0.05 0.05 0.07 0.07 0.04 0.06 0.04 0.06 0.07 0.02 0.01 0.01 0.00 0.00 0.00 0.00 0.00 0.00 0.00 0.00 0.00 0.00 0.00 0.00 0.00 0.00 0.00 0.00 0.00 0.00 0.00 0.00 0.00 0.01 0.02 0.05 0.00 0.06 0.17 0.22 0.09 0.17 0.12 0.48 0.13 0.38 0.20 0.16 0.45 0.35 0.20 0.20 0.13 0.44 0.70 0.39 0.36 0.54 0.45 0.83 1.13 1.25 1.68 1.36 1.83 1.50 1.16 1.38 1.57 1.65 1.49 2.04 1.41
0.23 0.13 0.09 0.09 0.11 0.09 0.06 0.07 0.06 0.11 0.07 0.03 0.03 0.05 0.14 0.07 0.11 0.04 0.06 0.07 0.07 0.05 0.06 0.02 0.02 0.03 0.16 0.00 0.00 0.00 0.00 0.00 0.00 0.00 0.00 0.00 0.00 0.00 0.00 0.00 0.00 0.00 0.00 0.00 0.00 0.00 0.00 0.00 0.00 0.01 0.01 0.05 0.04 0.07 0.43 0.14 0.07 0.25 0.36 0.32 0.40 0.32 0.15 0.40 0.14 0.21 0.17 0.18 0.34 0.28 0.22 0.49 0.38 0.65 0.84 1.65 1.64 1.33 1.35 2.11 2.20 2.23 1.92 1.23 1.71 1.45 1.20 1.65
0.16 0.14 0.14 0.14 0.07 0.07 0.07 0.09 0.08 0.13 0.05 0.04 0.05 0.03 0.11 0.08 0.09 0.07 0.09 0.08 0.05 0.03 0.03 0.03 0.01 0.02 0.00 0.00 0.00 0.00 0.00 0.00 0.00 0.00 0.00 0.00 0.00 0.00 0.00 0.00 0.00 0.00 0.00 0.00 0.00 0.00 0.00 0.06 0.00 0.17 0.03 0.10 0.07 0.18 0.09 0.32 0.17 0.26 0.43 0.27 0.30 0.20 0.25 0.18 0.56 0.47 0.12 0.14 0.25 0.16 0.09 0.31 0.56 0.44 1.26 1.54 1.09 1.44 1.80 1.74 1.47 1.27 0.96 0.71 0.61 0.61 1.06 0.95
0.26 0.18 0.12 0.08 0.08 0.19 0.11 0.09 0.10 0.05 0.20 0.06 0.03 0.09 0.08 0.10 0.07 0.08 0.07 0.14 0.10 0.18 0.39 0.10 0.16 0.13 0.05 0.00 0.00 0.00 0.00 0.00 0.00 0.00 0.00 0.00 0.00 0.00 0.00 0.00 0.00 0.00 0.00 0.07 0.01 0.02 0.00 0.04 0.02 0.08 0.28 0.16 0.15 0.19 0.13 0.13 0.11 0.16 0.25 0.24 0.38 0.29 0.16 0.25 0.34 0.13 0.36 0.23 0.27 0.15 0.26 0.27 0.25 0.39 0.88 2.61 1.98 1.17 1.30 1.19 1.37 0.56 0.66 0.78 0.85 1.10 0.93 0.87
0.14 0.19 0.17 0.16 0.21 0.11 0.20 0.10 0.08 0.12 0.09 0.12 0.13 0.10 0.11 0.19 0.13 0.13 0.08 0.10 0.07 0.00 0.00 0.00 0.00 0.00 0.00 0.00 0.00 0.00 0.00 0.00 0.00 0.00 0.00 0.00 0.00 0.00 0.00 0.00 0.00 0.00 0.03 0.12 0.09 0.02 0.00 0.06 0.11 0.33 0.13 0.10 0.00 0.01 0.01 0.02 0.08 0.05 0.15 0.18 0.48 0.23 0.17 0.14 0.16 0.19 0.20 0.26 0.43 0.35 0.15 0.15 0.25 0.31 1.04 2.23 1.84 1.55 1.70 1.97 1.14 1.08 0.73 1.33 0.80 0.82 0.92 1.28
0.25 0.12 0.17 0.19 0.12 0.23 0.14 0.18 0.15 0.07 0.08 0.10 0.16 0.18 0.28 0.07 0.11 0.17 0.04 0.01 0.00 0.00 0.00 0.00 0.00 0.00 0.03 0.00 0.00 0.00 0.00 0.00 0.00 0.00 0.00 0.00 0.00 0.00 0.00 0.00 0.03 0.02 0.01 0.01 0.16 0.03 0.01 0.14 0.12 0.01 0.03 0.08 0.01 0.00 0.00 0.01 0.02 0.04 0.06 0.24 0.35 0.32 0.25 0.28 0.19 0.10 0.17 0.34 0.33 0.42 0.16 0.17 0.19 0.51 1.24 0.70 1.54 1.40 1.26 2.21 2.34 3.00 2.16 1.54 1.95 1.81 1.69 1.44
0.31 0.24 0.22 0.23 0.39 0.22 0.25 0.16 0.12 0.09 0.18 0.22 0.38 0.18 0.13 0.02 0.04 0.03 0.14 0.09 0.01 0.00 0.00 0.00 0.00 0.00 0.00 0.00 0.00 0.00 0.00 0.00 0.00 0.00 0.00 0.00 0.00 0.00 0.00 0.00 0.00 0.05 0.00 0.00 0.03 0.11 0.06 0.25 0.05 0.02 0.03 0.00 0.00 0.00 0.00 0.01 0.04 0.06 0.18 0.20 0.17 0.33 0.16 0.12 0.09 0.06 0.15 0.26 0.34 0.25 0.19 0.33 0.38 0.43 0.73 0.70 0.86 1.82 2.14 2.56 2.88 3.00 2.12 2.59 1.83 2.04 1.56 1.24
0.27 0.16 0.28 0.19 0.28 0.34 0.23 0.23 0.18 0.22 0.49 0.38 0.27 0.05 0.18 0.02 0.00 0.15 0.10 0.14 0.03 0.03 0.01 0.00 0.00 0.00 0.00 0.00 0.00 0.00 0.00 0.00 0.00 0.00 0.00 0.00 0.00 0.00 0.01 0.00 0.00 0.01 0.00 0.00 0.11 0.09 0.38 0.11 0.03 0.02 0.00 0.00 0.00 0.00 0.00 0.01 0.01 0.14 0.13 0.30 0.41 0.10 0.39 0.29 0.05 0.08 0.04 0.27 0.27 0.26 0.19 0.39 0.60 0.59 0.68 0.67 0.59 1.07 2.18 2.39 2.65 4.52 3.52 2.45 2.67 1.68 2.22 1.69
0.23 0.32 0.20 0.31 0.26 0.24 0.26 0.35 0.30 0.40 0.28 0.23 0.13 0.09 0.10 0.03 0.02 0.09 0.17 0.39 0.04 0.02 0.00 0.00 0.00 0.00 0.00 0.00 0.01 0.00 0.00 0.00 0.00 0.02 0.00 0.00 0.00 0.00 0.00 0.00 0.00 0.00 0.02 0.01 0.01 0.01 0.05 0.00 0.00 0.00 0.00 0.00 0.01 0.00 0.00 0.11 0.17 0.01 0.16 0.48 0.09 0.13 0.22 0.42 0.28 0.13 0.05 0.09 0.16 0.18 0.32 0.32 0.33 0.55 0.51 0.69 0.61 0.82 0.75 0.91 1.14 1.15 1.42 1.04 1.17 1.01 1.41 1.60
0.33 0.29 0.42 0.29 0.31 0.30 0.31 0.46 0.30 0.31 0.29 0.38 0.20 0.11 0.09 0.08 0.02 0.12 0.15 0.18 0.05 0.00 0.00 0.00 0.00 0.00 0.00 0.00 0.00 0.00 0.00 0.00 0.00 0.00 0.00 0.00 0.01 0.00 0.00 0.00 0.00 0.00 0.01 0.00 0.00 0.01 0.10 0.01 0.00 0.00 0.00 0.00 0.01 0.04 0.01 0.01 0.30 0.13 0.05 0.12 0.18 0.12 0.24 0.18 0.07 0.21 0.31 0.36 0.21 0.23 0.56 0.67 0.61 0.58 0.58 0.55 0.46 0.36 0.51 0.79 0.90 0.84 0.84 0.57 1.01 0.98 0.58 0.50
0.32 0.28 0.27 0.27 0.26 0.42 0.75 0.52 0.50 0.50 0.35 0.49 0.29 0.16 0.08 0.06 0.05 0.09 0.19 0.30 0.22 0.03 0.00 0.05 0.00 0.02 0.00 0.00 0.00 0.00 0.00 0.01 0.00 0.00 0.00 0.00 0.01 0.00 0.03 0.01 0.00 0.01 0.01 0.00 0.01 0.03 0.01 0.00 0.00 0.00 0.01 0.01 0.01 0.02 0.03 0.03 0.25 0.24 0.36 0.02 0.05 0.04 0.06 0.68 0.43 0.23 0.59 0.67 0.51 0.14 1.14 0.71 0.43 0.62 0.49 0.49 0.39 0.52 0.67 0.84 1.03 1.03 0.64 0.61 0.85 1.04 1.01 0.77
0.21 0.30 0.36 0.28 0.36 0.50 0.34 0.62 0.63 0.41 0.62 0.50 0.38 0.34 0.10 0.21 0.18 0.18 0.62 0.30 0.32 0.06 0.03 0.01 0.02 0.05 0.00 0.06 0.00 0.00 0.48 0.08 0.00 0.00 0.00 0.00 0.01 0.01 0.01 0.01 0.00 0.00 0.01 0.06 0.00 0.07 0.00 0.00 0.00 0.00 0.02 0.02 0.07 0.17 0.10 0.00 0.10 0.47 0.04 0.08 0.04 0.05 0.14 0.25 0.16 0.46 0.44 0.13 0.06 0.04 0.26 0.74 0.81 0.54 0.17 0.31 0.44 0.35 0.70 0.76 0.50 0.64 0.51 0.49 0.67 1.21 1.17 0.50
0.28 0.26 0.27 0.21 0.46 0.48 0.57 0.74 0.48 0.55 0.47 0.45 0.54 0.21 0.24 0.17 0.14 0.64 0.56 0.22 0.23 0.00 0.05 0.00 0.01 0.00 0.01 0.00 0.00 0.00 0.03 0.00 0.04 0.20 0.00 0.00 0.00 0.01 0.00 0.00 0.00 0.00 0.00 0.00 0.42 0.03 0.00 0.01 0.01 0.01 0.01 0.02 0.19 0.04 0.00 0.01 0.15 0.24 0.07 0.02 0.09 0.10 0.09 0.15 0.24 0.46 0.30 0.18 0.44 0.28 0.08 0.37 0.76 0.53 0.13 0.49 0.55 0.50 0.59 0.42 0.35 0.46 0.63 0.78 0.81 0.84 0.75 0.93
0.44 0.26 0.21 0.38 0.54 0.33 0.42 0.73 0.55 0.75 0.46 0.72 0.14 0.28 0.52 0.38 0.16 0.80 0.62 0.26 0.28 0.05 0.04 0.11 0.03 0.01 0.01 0.00 0.04 0.00 0.01 0.01 0.03 0.03 0.00 0.00 0.00 0.01 0.08 0.01 0.00 0.00 0.00 0.00 0.10 0.01 0.01 0.00 0.02 0.01 0.03 0.12 0.01 0.01 0.00 0.00 0.12 0.01 0.01 0.01 0.03 0.04 0.08 0.11 0.22 0.33 0.30 0.35 0.69 0.33 0.25 0.63 1.05 0.50 0.54 0.43 0.61 0.44 0.44 0.42 0.62 0.70 1.17 0.65 0.77 0.44 0.48 0.57
0.37 0.74 0.35 0.77 0.80 0.72 0.62 0.95 0.38 0.46 0.36 0.29 0.59 0.57 0.59 0.40 1.35 0.97 0.81 0.28 0.11 0.28 0.02 0.09 0.10 0.07 0.01 0.04 0.07 0.10 0.11 0.06 0.01 0.07 0.01 0.02 0.03 0.00 0.00 0.00 0.01 0.02 0.05 0.00 0.03 0.01 0.01 0.00 0.00 0.01 0.01 0.00 0.00 0.01 0.00 0.00 0.00 0.01 0.01 0.04 0.09 0.21 0.20 0.16 0.13 0.33 0.46 0.47 0.56 0.31 0.18 0.28 0.97 0.73 0.76 0.72 0.33 0.30 0.32 0.34 0.37 0.38 0.47 0.56 0.65 1.03 0.89 0.36
0.19 0.46 0.75 0.38 0.93 0.56 0.48 0.62 0.53 0.45 0.31 0.28 0.29 0.41 0.49 0.59 0.84 0.58 0.29 0.38 0.03 0.32 0.09 0.05 0.30 0.04 0.19 0.16 0.15 0.09 0.08 0.04 0.08 0.01 0.06 0.01 0.16 0.03 0.06 0.04 0.01 0.02 0.03 0.02 0.11 0.02 0.02 0.04 0.08 0.02 0.00 0.00 0.00 0.00 0.01 0.00 0.00 0.01 0.07 0.09 0.23 0.33 0.17 0.28 0.33 0.29 0.41 0.51 0.19 0.18 0.31 0.24 0.68 1.58 0.67 0.26 0.16 0.23 0.26 0.17 0.27 0.22 0.27 0.40 0.30 0.36 0.27 0.33
0.18 0.27 0.28 0.36 0.42 0.43 0.48 0.67 0.48 0.36 0.33 0.53 0.42 0.52 0.50 0.79 0.67 0.63 0.23 0.02 0.62 0.52 0.26 0.15 0.11 0.14 0.13 0.12 0.09 0.07 0.14 0.22 0.20 0.07 0.11 0.03 0.11 0.39 0.14 0.37 0.15 0.22 0.18 0.19 0.29 0.04 0.11 0.10 0.04 0.03 0.03 0.00 0.01 0.07 0.07 0.00 0.01 0.05 0.07 0.24 0.69 0.84 0.34 0.73 0.75 0.49 0.45 0.71 0.46 0.20 0.13 0.36 0.52 0.70 0.98 0.32 0.19 0.14 0.13 0.17 0.23 0.15 0.15 0.16 0.13 0.15 0.60 0.35
0.12 0.22 0.14 0.09 0.08 0.25 0.16 0.25 0.25 0.27 0.61 0.36 1.04 0.72 0.65 0.65 0.18 0.36 0.60 0.26 0.66 0.48 0.90 0.34 0.29 0.18 0.18 0.14 0.11 0.15 0.13 0.22 0.11 0.17 0.07 0.17 0.14 0.09 0.08 0.14 0.08 0.17 0.49 0.17 0.16 0.15 0.13 0.11 0.03 0.09 0.01 0.01 0.00 0.40 0.11 0.15 0.13 0.24 0.23 0.31 0.48 0.67 0.53 0.30 0.47 0.42 0.47 0.22 0.15 0.35 0.08 0.54 0.89 0.54 0.50 0.42 0.24 0.11 0.10 0.12 0.15 0.08 0.07 0.10 0.11 0.13 0.21 0.25
0.02 0.03 0.08 0.07 0.09 0.05 0.10 0.18 0.77 0.50 0.30 1.04 0.98 0.77 1.70 0.49 0.44 0.18 0.42 0.31 0.80 0.25 0.41 0.51 0.30 0.17 0.42 0.28 0.54 0.56 0.33 0.05 0.21 0.18 0.03 0.11 0.05 0.22 0.13 0.02 0.03 0.06 0.23 0.21 0.31 0.23 0.44 0.69 0.24 0.05 0.25 0.00 0.02 0.05 0.13 0.35 0.06 0.42 0.07 0.27 0.43 0.51 0.59 0.36 0.56 0.54 0.62 0.76 0.40 0.20 0.08 0.81 0.62 2.83 0.64 0.18 0.20 0.09 0.07 0.15 0.10 0.11 0.11 0.20 0.12 0.22 0.28 0.31
0.02 0.03 0.06 0.12 0.11 0.07 0.25 0.10 0.38 0.40 0.63 1.40 0.71 0.65 0.42 0.25 0.50 0.56 0.55 0.67 0.59 0.30 0.42 0.28 0.39 0.18 0.50 0.26 0.36 0.15 0.21 0.55 0.09 0.09 0.11 0.06 0.27 0.17 0.09 0.12 0.06 0.02 0.05 0.29 0.14 0.14 0.12 0.29 0.07 0.01 0.01 0.00 0.04 0.02 0.01 0.06 0.24 0.08 0.21 0.17 0.57 0.57 0.14 0.62 0.66 0.53 0.65 0.49 0.32 0.19 0.34 0.76 1.19 1.26 1.08 0.83 0.14 0.07 0.09 0.10 0.06 0.11 0.12 0.12 0.18 0.20 0.27 0.29
0.02 0.09 0.10 0.25 0.16 0.08 0.06 0.17 0.49 0.28 0.30 0.45 0.69 0.61 0.49 0.44 1.05 0.73 0.94 0.54 0.49 0.95 0.50 0.26 0.35 0.31 0.30 0.54 0.11 0.17 0.08 0.35 0.22 0.08 0.14 0.14 0.12 0.25 0.03 0.06 0.04 0.02 0.16 0.14 0.20 0.23 0.05 0.48 0.01 0.04 0.00 0.01 0.06 0.00 0.04 0.04 1.08 0.50 0.20 0.51 0.22 0.10 0.17 0.36 0.11 0.07 0.04 0.07 0.37 0.23 0.63 0.53 0.26 0.62 0.78 0.67 0.10 0.14 0.15 0.08 0.08 0.31 0.41 0.55 0.67 0.90 0.97 0.95
0.13 0.23 0.34 0.31 0.26 0.17 0.11 0.20 0.29 0.37 0.23 0.45 0.57 0.60 0.41 0.44 0.72 0.77 0.70 0.61 0.75 0.63 0.60 0.70 0.58 0.30 0.37 0.41 0.29 0.10 0.30 0.13 0.29 0.09 0.53 0.19 0.37 0.10 0.06 0.08 0.00 0.02 0.01 0.01 0.31 0.02 0.20 0.52 0.01 0.02 0.12 0.02 0.00 0.00 0.00 0.04 0.01 0.14 0.33 0.27 0.12 0.06 0.13 0.18 0.72 0.22 0.15 0.45 0.39 0.23 0.71 1.16 0.42 2.30 1.00 0.70 0.48 0.40 0.26 0.28 0.47 0.50 0.57 0.67 0.82 0.81 0.90 1.04
0.23 0.34 0.40 0.33 0.30 0.15 0.14 0.21 0.28 0.49 0.46 0.39 0.45 0.36 0.42 0.79 0.53 0.84 0.66 0.45 0.68 0.75 0.86 0.74 0.63 0.33 0.47 0.38 0.45 0.11 0.20 0.33 0.45 0.23 0.55 0.22 0.65 0.04 0.07 0.11 0.04 0.04 0.01 0.03 0.09 0.30 0.09 0.37 0.08 0.00 0.00 0.02 0.01 0.01 0.05 0.02 0.05 0.10 0.36 0.12 0.42 0.93 0.83 0.26 0.11 0.40 0.51 0.28 0.32 0.29 0.47 0.60 0.56 1.45 0.65 1.17 0.87 0.61 0.49 0.36 0.22 0.25 0.19 0.42 0.77 1.02 0.98 0.60
0.37 0.40 0.81 0.28 0.15 0.12 0.18 0.27 0.36 0.78 0.69 0.46 0.53 0.51 0.45 0.72 0.49 0.75 0.53 0.46 0.76 0.76 0.75 0.96 0.82 0.62 0.58 0.58 0.32 0.20 0.20 0.41 0.22 0.93 0.62 0.58 0.68 0.78 0.15 0.03 0.09 0.02 0.02 0.03 0.15 0.11 0.06 0.26 0.24 0.02 0.04 0.15 0.03 0.04 0.29 0.18 0.06 0.04 0.05 0.41 0.24 0.25 0.46 0.68 0.38 0.57 0.37 0.70 0.24 0.80 0.56 1.06 0.73 1.05 0.68 0.72 0.55 0.69 0.57 0.39 0.47 0.43 0.51 0.37 0.40 0.32 0.45 0.45
0.59 0.58 0.85 0.24 0.09 0.19 0.17 0.22 0.38 0.80 0.60 0.42 0.49 0.55 0.58 0.61 0.62 0.53 0.82 0.53 1.12 0.89 1.09 0.78 0.48 0.72 0.35 0.37 0.22 0.33 0.11 0.15 0.23 0.69 0.48 1.10 0.64 0.27 0.38 0.04 0.33 0.09 0.03 0.03 0.14 0.18 0.30 0.09 0.54 0.24 0.04 0.06 0.31 0.10 0.35 0.21 0.33 0.23 0.14 0.35 0.30 0.22 0.25 0.17 0.38 0.32 0.49 0.46 0.48 0.36 0.65 1.23 0.96 0.59 0.45 0.67 0.41 0.31 0.66 0.59 0.49 0.59 0.59 0.74 0.68 0.39 0.43 0.47
0.53 1.06 1.20 0.22 0.19 0.22 0.23 0.47 0.78 0.55 0.33 0.25 0.29 0.58 0.35 0.72 0.62 0.64 0.62 0.52 0.68 0.62 0.78 0.54 0.45 0.62 0.45 0.45 0.58 0.09 0.26 0.21 0.16 0.50 0.36 0.51 0.51 1.02 0.18 0.15 0.06 0.42 0.06 0.11 0.27 0.21 0.22 0.29 0.35 0.25 0.54 0.18 0.12 0.07 0.12 0.20 0.19 0.32 0.21 0.48 0.26 0.54 0.60 0.53 0.73 0.14 0.17 0.35 0.51 0.36 0.80 0.97 0.85 0.47 1.18 0.54 0.28 0.65 0.68 0.74 0.76 0.60 0.52 0.41 0.36 0.51 0.42 0.58
0.60 1.21 1.36 0.37 0.34 0.25 0.42 1.06 0.66 0.40 0.42 0.53 0.57 0.43 0.67 0.50 0.59 0.51 0.58 0.32 0.49 0.66 0.64 0.40 0.29 0.44 0.33 0.48 0.30 0.15 0.16 0.15 0.26 0.36 0.41 0.62 0.36 0.60 0.58 0.03 0.07 0.08 0.26 0.38 0.45 0.33 0.28 0.57 0.67 0.34 0.38 0.63 0.23 0.20 0.11 0.35 0.20 0.23 0.33 0.65 0.40 0.92 0.48 0.87 0.63 0.66 0.32 0.45 0.22 0.65 0.47 1.24 0.82 0.92 0.52 0.64 0.30 0.33 0.67 0.80 1.26 0.63 0.72 0.37 0.26 0.27 0.64 0.54
0.90 2.03 0.84 0.53 0.43 0.46 0.99 1.03 0.52 0.58 0.68 0.34 0.22 0.32 0.36 0.50 0.41 0.31 0.60 0.45 0.70 0.61 0.58 0.43 0.33 0.31 0.36 0.45 0.27 0.29 0.11 0.24 0.20 0.44 0.21 0.26 0.35 0.28 0.09 0.10 0.17 0.11 0.21 0.49 0.18 0.71 0.30 0.50 0.67 0.46 0.22 0.21 0.18 0.09 0.15 0.64 0.23 0.27 0.33 0.27 0.45 0.85 0.84 0.69 0.58 0.78 0.79 0.71 0.81 0.80 0.54 1.49 1.39 1.26 0.73 0.59 0.49 0.38 0.44 1.05 0.69 0.98 0.79 0.59 0.36 0.25 0.25 0.36
1.42 1.39 0.68 0.91 0.83 0.73 1.27 0.89 0.71 0.49 0.50 0.29 0.37 0.65 0.38 0.59 0.39 0.43 0.33 0.53 0.79 0.42 0.83 0.41 0.25 0.38 0.51 0.55 0.39 0.15 0.17 0.40 0.18 0.19 0.30 0.17 0.48 0.18 0.25 0.38 0.12 0.31 0.35 0.78 0.69 0.78 0.88 1.21 0.68 1.08 0.63 0.64 0.60 0.39 0.72 0.41 0.36 0.35 0.58 0.51 0.32 0.59 0.42 0.63 0.58 0.78 0.75 0.57 0.75 0.84 1.20 1.07 1.33 0.84 0.58 0.70 0.48 0.84 0.92 0.93 1.03 0.99 1.04 0.60 0.37 0.21 0.17 0.24
2.17 0.67 0.65 0.87 0.98 1.22 1.42 1.24 1.03 0.59 0.60 0.63 0.59 0.72 0.71 0.49 0.26 0.27 0.34 0.46 0.58 0.62 0.69 0.46 0.41 0.40 0.63 0.47 0.16 0.06 0.15 0.14 0.51 0.40 0.13 0.29 0.49 0.15 0.25 0.44 0.49 0.47 0.39 0.44 0.31 0.53 0.61 1.11 1.14 1.40 1.34 1.41 1.51 1.50 1.54 1.10 1.00 0.62 0.38 0.34 0.28 0.30 0.57 0.66 0.52 0.75 0.67 0.60 0.65 0.91 0.80 0.92 1.07 0.61 0.71 1.05 1.02 1.10 1.24 1.10 0.90 1.04 0.89 0.76 0.98 0.34 0.76 0.53
1.22 0.65 0.48 1.36 1.36 1.64 1.13 1.03 1.24 1.19 0.94 0.94 0.83 0.63 0.60 0.57 0.26 0.37 0.14 0.61 0.30 0.73 0.69 0.55 0.44 0.48 0.52 0.30 0.18 0.17 0.14 0.18 0.29 0.35 0.19 0.29 0.15 0.06 0.11 0.09 0.12 0.19 0.14 0.18 0.28 0.43 0.75 0.88 0.87 1.03 1.32 1.41 1.39 1.26 1.40 0.64 0.84 0.86 0.64 0.42 0.36 0.37 0.57 0.57 0.64 0.72 1.00 0.82 0.70 1.02 1.00 1.01 0.84 0.76 0.51 0.52 0.66 0.62 0.65 0.63 0.91 1.00 1.03 0.65 0.75 1.22 0.88 1.09
0.97 0.71 0.57 0.94 1.40 1.69 1.55 1.11 1.43 1.16 1.49 1.00 0.93 0.72 0.75 0.51 0.45 1.01 0.25 0.41 0.15 0.79 1.00 0.73 0.43 0.48 0.51 0.42 0.33 0.30 0.13 0.10 0.39 0.32 0.30 0.23 0.20 0.12 0.03 0.06 0.14 0.19 0.17 0.24 0.21 0.47 0.63 0.69 0.91 1.44 1.47 1.15 1.05 1.15 1.14 0.80 0.87 0.51 0.40 0.50 0.50 0.39 0.66 0.57 0.57 1.00 0.86 0.72 0.97 0.77 0.72 0.73 1.00 0.69 0.78 0.69 0.63 0.51 0.48 0.49 0.33 0.43 0.65 1.03 1.41 0.66 0.54 0.42
0.98 0.39 0.54 0.93 1.71 1.64 2.09 1.82 1.50 1.65 1.33 1.02 0.82 0.54 0.69 0.58 0.44 0.48 0.09 0.11 0.27 0.52 1.37 0.73 0.86 0.79 0.94 0.79 0.61 0.38 0.17 0.23 0.20 0.22 0.43 0.21 0.24 0.10 0.09 0.05 0.12 0.29 0.29 0.33 0.20 0.43 1.01 0.75 0.85 0.84 1.09 1.18 0.82 0.78 0.79 1.01 0.66 0.47 0.36 0.27 0.86 0.57 0.46 0.68 0.35 0.65 0.86 0.90 1.21 0.89 1.01 0.84 1.00 1.07 0.92 1.05 0.63 0.57 0.67 0.65 0.61 0.47 0.40 0.48 0.77 0.85 0.87 0.88
0.99 0.18 0.76 0.68 1.54 1.48 1.72 1.75 1.88 2.00 1.56 0.92 0.76 0.68 0.68 0.71 0.47 0.24 0.22 0.38 0.55 0.48 0.78 0.53 0.63 1.01 1.05 0.89 0.34 0.28 0.25 0.54 0.20 0.51 0.49 0.57 0.24 0.21 0.30 0.17 0.28 0.19 0.39 0.27 0.30 0.33 0.48 0.48 1.32 0.68 0.84 0.81 0.81 0.72 0.68 0.66 0.60 0.52 0.30 0.30 0.41 0.32 0.44 0.39 0.39 0.57 0.73 0.62 0.62 0.62 0.47 0.47 0.73 0.77 0.77 1.00 0.65 0.52 0.54 0.36 0.31 0.26 0.30 0.25 0.30 0.31 0.58 0.54
0.78 0.71 0.46 0.45 0.85 0.93 1.16 1.42 1.53 1.20 1.08 0.73 0.82 0.63 0.86 0.69 0.57 0.46 0.35 0.39 0.30 0.37 0.21 0.58 0.54 0.70 1.59 0.97 0.60 0.66 0.34 0.85 0.86 0.50 0.54 0.55 0.48 0.29 0.32 0.21 0.60 0.41 0.46 0.87 0.59 0.76 0.47 0.68 0.27 0.72 0.84 0.86 1.08 1.04 0.62 0.43 0.50 0.61 0.29 0.37 0.34 0.38 0.36 0.40 0.37 0.52 0.44 0.43 0.48 0.34 0.59 0.54 0.89 0.63 0.76 1.01 0.52 0.30 0.34 0.57 0.33 0.25 0.26 0.25 0.27 0.27 0.32 0.37
0.88 1.06 0.83 1.41 0.86 0.49 0.88 1.29 1.63 1.20 1.08 0.80 1.15 0.60 0.71 0.48 0.38 0.59 0.35 0.50 0.42 0.49 0.53 0.37 0.44 1.33 0.89 0.84 1.13 1.47 1.06 0.48 0.89 0.35 0.91 0.80 0.51 0.28 0.43 0.34 0.09 0.33 0.50 0.47 0.32 0.85 0.69 0.67 0.39 0.66 1.13 0.85 0.79 0.96 1.55 0.91 0.62 0.80 0.90 0.69 0.64 0.49 0.64 0.66 0.75 0.83 0.70 0.92 1.03 0.89 0.76 1.20 1.02 0.43 0.88 0.59 0.57 0.53 0.59 0.71 0.78 0.76 0.59 0.67 0.60 0.56 0.35 0.32
0.89 0.77 0.67 1.18 0.88 0.27 1.06 1.13 1.44 1.33 0.78 0.86 0.96 0.91 0.73 0.37 0.92 0.17 0.41 0.30 0.37 0.79 0.58 0.23 0.70 1.03 0.43 1.26 1.49 1.02 0.43 0.51 0.49 0.18 0.38 0.29 0.29 0.73 0.03 0.23 0.09 0.18 0.17 0.29 0.44 0.73 0.90 0.77 0.79 0.92 0.89 0.68 0.84 0.75 1.00 0.95 0.96 1.16 0.97 0.84 0.63 0.74 0.77 0.63 0.64 0.57 0.87 0.99 1.25 1.10 1.57 1.19 0.83 0.56 0.60 0.79 0.63 0.69 1.00 0.75 1.06 0.82 0.66 0.70 0.59 0.48 0.45 0.37